sat.trackr.live / text

‹ back to catalog

STARLINK-36382

NORAD 67807 · 2026-032L

PAYLOAD ACTIVE UNKNOWN

§ Identity

Operator
Country
US
Launch date
2026-02-15
Launch site
AFWTR
Launch vehicle
Mass (kg)
RCS (m²)

Purposes: comms

External: N2YO · Heavens-Above · Gunter

§ Orbital elements

Epoch: 2026-05-25T01:24:30.381408Z

Period
93.91 min
Inclination
97.2848°
Eccentricity
0.0001602
Mean motion
15.33451507 rev/d
Perigee alt
464.4 km
Apogee alt
466.6 km
Semi-major
6,843.7 km
B*
5.4108e-4
RAAN
333.1399°
Arg perigee
101.7622°
Mean anomaly
258.3801°
Rev number
1,666

§ Raw data

STARLINK-363821 67807U 26032L   26145.05868497  .00017437  00000+0  54108-3 0  99982 67807  97.2848 333.1399 0001602 101.7622 258.3801 15.33451507 16667

JSON: /api/v1/satellites/67807 · /tle

For live sub-satellite position, see the globe view (requires WebGL).

§ Visibility from observer

Set your observer location to see the next 7 days of passes ≥ 10°. The values pass through the URL so the page stays shareable.

No JS? Fill the form by hand. The geolocation button needs JavaScript.